Location: Handeloh
(53.2500°N, 9.8330°E)
Time: 04:04:06
(UTC+01:00)

S-56A Canister/Altair - Pass Details

Date: 17 November 2019
Orbit: 633 x 2499 km, 38.9° (Epoch: 10 December)

Event Time Altitude Azimuth Distance (km) Brightness Sun altitude
Rises 21:38:33 0° 255° (WSW) 3,802 11.5 -45.6°
Enters shadow 21:40:28 - 247° (WSW) 3,174 10.9 -45.8°
Reaches altitude 10° 21:42:48 10° 233° (SW) 2,513 - -46.1°
Maximum altitude 21:45:42 14° 202° (SSW) 2,037 - -46.5°
Drops below altitude 10° 21:48:16 10° 170° (S) 2,172 - -46.8°
Sets 21:51:29 0° 144° (SE) 2,961 - -47.1°
